| time (UTC) | temp F | wind direction | speed knots | gust knots | rain 1hr in | rain 24hr in | rain mn in | humidity % | barometer mb |
| 20260903043634 | 77 | 228 | 0.0 | 0.0 | 0.00 | 0.00 | 0.00 | 93 | 1015.6 |
| 20260903043133 | 77 | 225 | 0.0 | 0.0 | 0.00 | 0.00 | 0.00 | 92 | 1015.4 |
| 20260903042632 | 78 | 223 | 0.0 | 0.0 | 0.00 | 0.00 | 0.00 | 92 | 1015.6 |
| 20260903042127 | 78 | 220 | 0.9 | 0.9 | 0.00 | 0.00 | 0.00 | 92 | 1015.5 |
| 20260903041624 | 78 | 219 | 0.9 | 0.9 | 0.00 | 0.00 | 0.00 | 92 | 1015.4 |
| 20260903041120 | 78 | 225 | 0.9 | 0.9 | 0.00 | 0.00 | 0.00 | 92 | 1015.4 |
| 20260903040619 | 78 | 227 | 0.9 | 1.7 | 0.00 | 0.00 | 0.00 | 91 | 1015.1 |
| 20260903040115 | 78 | 208 | 1.7 | 2.6 | 0.00 | 0.00 | 0.00 | 91 | 1015.1 |
| 20260903035610 | 78 | 226 | 2.6 | 4.3 | 0.00 | 0.00 | 0.00 | 90 | 1014.8 |
| 20260903035106 | 78 | 214 | 4.3 | 5.2 | 0.00 | 0.00 | 0.00 | 90 | 1014.9 |
| 20260903034601 | 78 | 199 | 3.5 | 5.2 | 0.00 | 0.00 | 0.00 | 90 | 1014.9 |
| 20260903034056 | 79 | 226 | 3.5 | 4.3 | 0.00 | 0.00 | 0.00 | 90 | 1014.9 |
| 20260903033551 | 79 | 239 | 3.5 | 5.2 | 0.00 | 0.00 | 0.00 | 90 | 1014.9 |
| 20260903033046 | 79 | 224 | 3.5 | 4.3 | 0.00 | 0.00 | 0.00 | 89 | 1014.6 |
| 20260903032541 | 79 | 230 | 2.6 | 5.2 | 0.00 | 0.00 | 0.00 | 89 | 1014.9 |
| 20260903032037 | 79 | 229 | 4.3 | 6.1 | 0.00 | 0.00 | 0.00 | 89 | 1014.6 |
| 20260903031536 | 80 | 239 | 6.1 | 8.7 | 0.00 | 0.00 | 0.00 | 88 | 1014.7 |
| 20260903031031 | 80 | 216 | 5.2 | 7.0 | 0.00 | 0.00 | 0.00 | 88 | 1014.4 |
| 20260903030527 | 80 | 223 | 5.2 | 7.0 | 0.00 | 0.00 | 0.00 | 88 | 1014.6 |
| 20260903030023 | 80 | 219 | 6.1 | 7.0 | 0.00 | 0.00 | 0.00 | 88 | 1014.6 |
| 20260903025518 | 80 | 218 | 5.2 | 7.0 | 0.00 | 0.00 | 0.00 | 88 | 1014.5 |
| 20260903025014 | 80 | 236 | 5.2 | 6.1 | 0.00 | 0.00 | 0.00 | 88 | 1014.8 |
| 20260903024513 | 80 | 223 | 4.3 | 7.0 | 0.00 | 0.00 | 0.00 | 87 | 1015.1 |
| 20260903024008 | 80 | 219 | 5.2 | 7.8 | 0.00 | 0.00 | 0.00 | 87 | 1015.0 |
| 20260903023503 | 80 | 214 | 6.1 | 7.0 | 0.00 | 0.00 | 0.00 | 88 | 1015.1 |
| 20260903022958 | 80 | 219 | 4.3 | 7.0 | 0.00 | 0.00 | 0.00 | 88 | 1015.1 |
| 20260903022457 | 80 | 235 | 3.5 | 6.1 | 0.00 | 0.00 | 0.00 | 87 | 1015.5 |
| 20260903021955 | 81 | 239 | 5.2 | 6.1 | 0.00 | 0.00 | 0.00 | 87 | 1015.2 |
| 20260903021451 | 81 | 221 | 6.1 | 7.0 | 0.00 | 0.00 | 0.00 | 86 | 1015.4 |
| 20260903020946 | 81 | 225 | 6.1 | 7.8 | 0.00 | 0.00 | 0.00 | 86 | 1015.1 |
| 20260903020442 | 81 | 218 | 5.2 | 7.0 | 0.00 | 0.00 | 0.00 | 86 | 1015.1 |
| 20260903015937 | 81 | 221 | 5.2 | 7.8 | 0.00 | 0.00 | 0.00 | 86 | 1015.4 |
| 20260903015432 | 81 | 218 | 5.2 | 7.0 | 0.00 | 0.00 | 0.00 | 86 | 1015.2 |
| 20260903014927 | 81 | 226 | 5.2 | 6.1 | 0.00 | 0.00 | 0.00 | 86 | 1015.1 |
| 20260903014426 | 81 | 212 | 5.2 | 7.0 | 0.00 | 0.00 | 0.00 | 86 | 1015.4 |
| 20260903013922 | 81 | 220 | 5.2 | 6.1 | 0.00 | 0.00 | 0.00 | 86 | 1015.4 |
| 20260903013421 | 81 | 215 | 4.3 | 5.2 | 0.00 | 0.00 | 0.00 | 85 | 1015.1 |
| 20260903012915 | 81 | 221 | 5.2 | 6.1 | 0.00 | 0.00 | 0.00 | 86 | 1015.1 |
| 20260903012414 | 80 | 218 | 4.3 | 5.2 | 0.00 | 0.00 | 0.00 | 87 | 1015.1 |
| 20260903011913 | 80 | 214 | 4.3 | 5.2 | 0.00 | 0.00 | 0.00 | 87 | 1015.2 |
| 20260903011408 | 81 | 217 | 3.5 | 5.2 | 0.00 | 0.00 | 0.00 | 86 | 1015.2 |
| 20260903010903 | 81 | 214 | 4.3 | 5.2 | 0.00 | 0.00 | 0.00 | 86 | 1014.9 |
| 20260903010359 | 81 | 233 | 4.3 | 5.2 | 0.00 | 0.00 | 0.00 | 86 | 1015.2 |
| 20260903005856 | 81 | 212 | 4.3 | 5.2 | 0.00 | 0.00 | 0.00 | 86 | 1015.0 |
| 20260903005352 | 81 | 210 | 3.5 | 4.3 | 0.00 | 0.00 | 0.00 | 86 | 1015.0 |
| 20260903004848 | 81 | 232 | 3.5 | 4.3 | 0.00 | 0.00 | 0.00 | 86 | 1015.0 |
| 20260903004343 | 81 | 209 | 3.5 | 4.3 | 0.00 | 0.00 | 0.00 | 86 | 1014.8 |
| 20260903003839 | 81 | 219 | 3.5 | 4.3 | 0.00 | 0.00 | 0.00 | 85 | 1014.9 |
| 20260903003339 | 81 | 212 | 2.6 | 2.6 | 0.00 | 0.00 | 0.00 | 85 | 1015.0 |
| 20260903002838 | 82 | 221 | 2.6 | 4.3 | 0.00 | 0.00 | 0.00 | 84 | 1014.8 |
| 20260903002334 | 82 | 221 | 2.6 | 2.6 | 0.00 | 0.00 | 0.00 | 83 | 1014.9 |
| 20260903001828 | 83 | 219 | 2.6 | 2.6 | 0.00 | 0.00 | 0.00 | 81 | 1014.9 |
| 20260903001324 | 83 | 215 | 3.5 | 5.2 | 0.00 | 0.00 | 0.00 | 81 | 1015.0 |
| 20260903000823 | 84 | 217 | 4.3 | 5.2 | 0.00 | 0.00 | 0.00 | 80 | 1014.8 |
| 20260903000318 | 84 | 215 | 4.3 | 5.2 | 0.00 | 0.00 | 0.00 | 79 | 1015.0 |
| 20260902235816 | 85 | 216 | 4.3 | 5.2 | 0.00 | 0.00 | 0.00 | 78 | 1015.1 |
| 20260902235312 | 85 | 219 | 4.3 | 6.1 | 0.00 | 0.00 | 0.00 | 77 | 1015.0 |
| 20260902234812 | 86 | 227 | 2.6 | 6.1 | 0.00 | 0.00 | 0.00 | 76 | 1015.1 |
| 20260902234311 | 86 | 210 | 3.5 | 6.1 | 0.00 | 0.00 | 0.00 | 75 | 1015.1 |
| 20260902233810 | 86 | 223 | 3.5 | 5.2 | 0.00 | 0.00 | 0.00 | 75 | 1015.0 |
| 20260902233305 | 87 | 217 | 3.5 | 6.1 | 0.00 | 0.00 | 0.00 | 74 | 1015.0 |
| 20260902232804 | 87 | 237 | 6.1 | 7.8 | 0.00 | 0.00 | 0.00 | 73 | 1015.0 |
| 20260902232306 | 88 | 234 | 4.3 | 7.0 | 0.00 | 0.00 | 0.00 | 72 | 1015.0 |
| 20260902231803 | 88 | 217 | 6.1 | 6.1 | 0.00 | 0.00 | 0.00 | 71 | 1014.9 |
| 20260902231258 | 89 | 204 | 3.5 | 6.1 | 0.00 | 0.00 | 0.00 | 70 | 1015.0 |
| 20260902230753 | 89 | 222 | 4.3 | 7.8 | 0.00 | 0.00 | 0.00 | 70 | 1014.8 |
| 20260902230252 | 89 | 251 | 3.5 | 7.0 | 0.00 | 0.00 | 0.00 | 69 | 1015.1 |
| 20260902225747 | 90 | 236 | 5.2 | 6.1 | 0.00 | 0.00 | 0.00 | 69 | 1014.9 |
| 20260902225242 | 90 | 233 | 5.2 | 6.1 | 0.00 | 0.00 | 0.00 | 67 | 1014.8 |
| 20260902224740 | 90 | 204 | 7.0 | 9.6 | 0.00 | 0.00 | 0.00 | 68 | 1014.9 |
| 20260902224236 | 90 | 237 | 5.2 | 7.8 | 0.00 | 0.00 | 0.00 | 66 | 1015.0 |
| 20260902223732 | 91 | 222 | 5.2 | 7.8 | 0.00 | 0.00 | 0.00 | 66 | 1015.0 |
| 20260902223231 | 91 | 223 | 6.1 | 7.8 | 0.00 | 0.00 | 0.00 | 65 | 1015.0 |
| 20260902222725 | 91 | 212 | 6.1 | 8.7 | 0.00 | 0.00 | 0.00 | 65 | 1014.7 |
| 20260902222225 | 91 | 220 | 6.1 | 7.8 | 0.00 | 0.00 | 0.00 | 63 | 1014.9 |
| 20260902221720 | 90 | 232 | 4.3 | 6.1 | 0.00 | 0.00 | 0.00 | 64 | 1015.4 |
| 20260902221219 | 90 | 228 | 7.0 | 12.2 | 0.00 | 0.00 | 0.00 | 63 | 1014.9 |
| 20260902220714 | 91 | 215 | 7.8 | 8.7 | 0.00 | 0.00 | 0.00 | 62 | 1015.1 |
| 20260902220209 | 91 | 237 | 6.1 | 8.7 | 0.00 | 0.00 | 0.00 | 63 | 1015.2 |
| 20260902215704 | 92 | 234 | 5.2 | 7.0 | 0.00 | 0.00 | 0.00 | 61 | 1015.2 |
| 20260902215200 | 92 | 219 | 5.2 | 8.7 | 0.00 | 0.00 | 0.00 | 62 | 1015.4 |
| 20260902214655 | 92 | 215 | 7.8 | 9.6 | 0.00 | 0.00 | 0.00 | 61 | 1015.4 |
| 20260902214154 | 92 | 243 | 6.1 | 8.7 | 0.00 | 0.00 | 0.00 | 61 | 1015.4 |
| 20260902213650 | 92 | 220 | 5.2 | 7.8 | 0.00 | 0.00 | 0.00 | 60 | 1015.1 |
| 20260902213149 | 92 | 224 | 8.7 | 12.2 | 0.00 | 0.00 | 0.00 | 60 | 1015.2 |
| 20260902212644 | 93 | 243 | 7.0 | 13.0 | 0.00 | 0.00 | 0.00 | 60 | 1015.2 |
| 20260902212140 | 93 | 252 | 7.8 | 11.3 | 0.00 | 0.00 | 0.00 | 57 | 1015.4 |
| 20260902211637 | 93 | 246 | 9.6 | 13.9 | 0.00 | 0.00 | 0.00 | 58 | 1015.2 |
| 20260902211137 | 93 | 217 | 7.8 | 12.2 | 0.00 | 0.00 | 0.00 | 59 | 1015.1 |
| 20260902210636 | 92 | 248 | 6.1 | 7.8 | 0.00 | 0.00 | 0.00 | 61 | 1015.4 |
| 20260902210131 | 93 | 245 | 8.7 | 13.0 | 0.00 | 0.00 | 0.00 | 60 | 1015.2 |
| 20260902205630 | 93 | 228 | 7.8 | 12.2 | 0.00 | 0.00 | 0.00 | 62 | 1015.5 |
| 20260902205125 | 93 | 215 | 9.6 | 12.2 | 0.00 | 0.00 | 0.00 | 61 | 1015.6 |
| 20260902204620 | 93 | 226 | 7.0 | 11.3 | 0.00 | 0.00 | 0.00 | 58 | 1015.6 |
| 20260902204115 | 94 | 248 | 6.1 | 11.3 | 0.00 | 0.00 | 0.00 | 60 | 1015.5 |
| 20260902203611 | 94 | 232 | 6.1 | 12.2 | 0.00 | 0.00 | 0.00 | 59 | 1015.6 |
| 20260902203110 | 94 | 243 | 7.8 | 13.0 | 0.00 | 0.00 | 0.00 | 58 | 1015.4 |
| 20260902202606 | 93 | 232 | 7.0 | 11.3 | 0.00 | 0.00 | 0.00 | 59 | 1015.7 |
| 20260902202103 | 94 | 230 | 11.3 | 13.9 | 0.00 | 0.00 | 0.00 | 58 | 1015.8 |
| 20260902201557 | 94 | 224 | 5.2 | 9.6 | 0.00 | 0.00 | 0.00 | 59 | 1015.8 |
| 20260902201051 | 94 | 217 | 11.3 | 13.9 | 0.00 | 0.00 | 0.00 | 59 | 1015.9 |
| 20260902200546 | 94 | 214 | 9.6 | 11.3 | 0.00 | 0.00 | 0.00 | 60 | 1015.9 |
| 20260902200042 | 94 | 249 | 7.0 | 7.8 | 0.00 | 0.00 | 0.00 | 61 | 1016.0 |
| 20260902195538 | 94 | 226 | 6.1 | 7.8 | 0.00 | 0.00 | 0.00 | 60 | 1015.9 |
| 20260902195037 | 94 | 218 | 7.8 | 12.2 | 0.00 | 0.00 | 0.00 | 59 | 1016.0 |
| 20260902194536 | 94 | 263 | 4.3 | 9.6 | 0.00 | 0.00 | 0.00 | 61 | 1016.1 |
| 20260902194032 | 94 | 208 | 7.8 | 8.7 | 0.00 | 0.00 | 0.00 | 60 | 1016.2 |
| 20260902193528 | 94 | 239 | 6.1 | 7.8 | 0.00 | 0.00 | 0.00 | 61 | 1016.1 |
| 20260902193027 | 93 | 229 | 5.2 | 7.8 | 0.00 | 0.00 | 0.00 | 61 | 1016.3 |
| 20260902192525 | 94 | 215 | 6.1 | 7.8 | 0.00 | 0.00 | 0.00 | 61 | 1016.4 |
| 20260902192024 | 94 | 228 | 7.8 | 8.7 | 0.00 | 0.00 | 0.00 | 60 | 1016.4 |
| 20260902191520 | 93 | 242 | 5.2 | 8.7 | 0.00 | 0.00 | 0.00 | 63 | 1016.3 |
| 20260902191014 | 93 | 258 | 7.0 | 8.7 | 0.00 | 0.00 | 0.00 | 62 | 1016.6 |
| 20260902190510 | 92 | 240 | 4.3 | 7.0 | 0.00 | 0.00 | 0.00 | 63 | 1016.6 |
| 20260902190005 | 91 | 240 | 5.2 | 6.1 | 0.00 | 0.00 | 0.00 | 66 | 1016.6 |
| 20260902185501 | 92 | 224 | 5.2 | 11.3 | 0.00 | 0.00 | 0.00 | 64 | 1016.5 |
| 20260902184956 | 92 | 239 | 7.0 | 8.7 | 0.00 | 0.00 | 0.00 | 66 | 1016.7 |
| 20260902184452 | 93 | 255 | 6.1 | 7.8 | 0.00 | 0.00 | 0.00 | 65 | 1016.7 |
| 20260902183947 | 92 | 235 | 4.3 | 7.8 | 0.00 | 0.00 | 0.00 | 64 | 1016.7 |
| 20260902183443 | 93 | 241 | 8.7 | 12.2 | 0.00 | 0.00 | 0.00 | 62 | 1016.7 |
| 20260902182939 | 92 | 242 | 4.3 | 7.8 | 0.00 | 0.00 | 0.00 | 66 | 1016.7 |
| 20260902182435 | 91 | 229 | 5.2 | 8.7 | 0.00 | 0.00 | 0.00 | 65 | 1016.8 |
| 20260902181932 | 91 | 229 | 6.1 | 8.7 | 0.00 | 0.00 | 0.00 | 64 | 1016.7 |
| 20260902181427 | 91 | 236 | 6.1 | 7.0 | 0.00 | 0.00 | 0.00 | 68 | 1017.0 |
| 20260902180926 | 92 | 247 | 5.2 | 7.8 | 0.00 | 0.00 | 0.00 | 64 | 1016.9 |
| 20260902180422 | 90 | 222 | 3.5 | 6.1 | 0.00 | 0.00 | 0.00 | 67 | 1017.0 |
| 20260902175918 | 90 | 235 | 4.3 | 6.1 | 0.00 | 0.00 | 0.00 | 68 | 1017.2 |
| 20260902175412 | 91 | 242 | 6.1 | 7.0 | 0.00 | 0.00 | 0.00 | 66 | 1017.3 |
| 20260902174908 | 90 | 226 | 4.3 | 7.8 | 0.00 | 0.00 | 0.00 | 67 | 1017.2 |
| 20260902174405 | 90 | 218 | 4.3 | 7.0 | 0.00 | 0.00 | 0.00 | 66 | 1017.1 |
| 20260902173901 | 91 | 231 | 6.1 | 9.6 | 0.00 | 0.00 | 0.00 | 66 | 1017.3 |
| 20260902173400 | 93 | 238 | 4.3 | 7.8 | 0.00 | 0.00 | 0.00 | 65 | 1017.3 |
| 20260902172854 | 91 | 234 | 4.3 | 7.8 | 0.00 | 0.00 | 0.00 | 65 | 1017.4 |
| 20260902172348 | 91 | 247 | 4.3 | 7.0 | 0.00 | 0.00 | 0.00 | 65 | 1017.4 |
| 20260902171844 | 92 | 214 | 5.2 | 8.7 | 0.00 | 0.00 | 0.00 | 64 | 1017.5 |
| 20260902171339 | 90 | 250 | 5.2 | 6.1 | 0.00 | 0.00 | 0.00 | 67 | 1017.6 |
| 20260902170835 | 90 | 245 | 5.2 | 7.8 | 0.00 | 0.00 | 0.00 | 64 | 1017.5 |
| 20260902170330 | 91 | 245 | 6.1 | 8.7 | 0.00 | 0.00 | 0.00 | 67 | 1017.5 |
| 20260902165826 | 91 | 249 | 6.1 | 7.0 | 0.00 | 0.00 | 0.00 | 66 | 1017.7 |
| 20260902165325 | 90 | 233 | 6.1 | 7.0 | 0.00 | 0.00 | 0.00 | 68 | 1017.6 |
| 20260902164820 | 90 | 213 | 7.8 | 12.2 | 0.00 | 0.00 | 0.00 | 64 | 1017.7 |
| 20260902164315 | 90 | 231 | 4.3 | 6.1 | 0.00 | 0.00 | 0.00 | 68 | 1017.8 |
| 20260902163814 | 90 | 235 | 5.2 | 7.0 | 0.00 | 0.00 | 0.00 | 70 | 1017.7 |
| 20260902163309 | 90 | 220 | 4.3 | 8.7 | 0.00 | 0.00 | 0.00 | 69 | 1017.9 |
| 20260902162807 | 90 | 250 | 5.2 | 7.8 | 0.00 | 0.00 | 0.00 | 70 | 1018.0 |
| 20260902162306 | 89 | 256 | 4.3 | 6.1 | 0.00 | 0.00 | 0.00 | 70 | 1018.0 |
| 20260902161756 | 87 | 227 | 3.5 | 6.1 | 0.00 | 0.00 | 0.00 | 75 | 1018.1 |
| 20260902161252 | 87 | 215 | 4.3 | 6.1 | 0.00 | 0.00 | 0.00 | 73 | 1018.1 |
| 20260902160748 | 87 | 243 | 4.3 | 7.0 | 0.00 | 0.00 | 0.00 | 73 | 1017.9 |
| 20260902160243 | 88 | 208 | 4.3 | 5.2 | 0.00 | 0.00 | 0.00 | 73 | 1017.9 |
| 20260902155741 | 87 | 227 | 3.5 | 6.1 | 0.00 | 0.00 | 0.00 | 72 | 1018.1 |
| 20260902155240 | 88 | 230 | 4.3 | 8.7 | 0.00 | 0.00 | 0.00 | 72 | 1017.9 |
| 20260902154735 | 87 | 218 | 4.3 | 7.0 | 0.00 | 0.00 | 0.00 | 74 | 1017.9 |
| 20260902154230 | 87 | 209 | 6.1 | 7.8 | 0.00 | 0.00 | 0.00 | 72 | 1017.9 |
| 20260902153724 | 87 | 235 | 4.3 | 7.0 | 0.00 | 0.00 | 0.00 | 73 | 1017.9 |
| 20260902153224 | 86 | 239 | 3.5 | 6.1 | 0.00 | 0.00 | 0.00 | 74 | 1018.0 |
| 20260902152720 | 87 | 250 | 4.3 | 7.0 | 0.00 | 0.00 | 0.00 | 74 | 1018.0 |
| 20260902152215 | 86 | 244 | 5.2 | 7.0 | 0.00 | 0.00 | 0.00 | 75 | 1018.0 |
| 20260902151711 | 85 | 228 | 3.5 | 6.1 | 0.00 | 0.00 | 0.00 | 76 | 1017.9 |
| 20260902151206 | 86 | 226 | 5.2 | 6.1 | 0.00 | 0.00 | 0.00 | 75 | 1017.9 |
| 20260902150701 | 85 | 258 | 5.2 | 7.8 | 0.00 | 0.00 | 0.00 | 76 | 1018.0 |
| 20260902150157 | 86 | 251 | 4.3 | 5.2 | 0.00 | 0.00 | 0.00 | 75 | 1017.9 |
| 20260902145655 | 85 | 245 | 6.1 | 7.0 | 0.00 | 0.00 | 0.00 | 75 | 1017.9 |
| 20260902145155 | 84 | 243 | 4.3 | 6.1 | 0.00 | 0.00 | 0.00 | 77 | 1017.8 |
| 20260902144652 | 84 | 240 | 5.2 | 7.0 | 0.00 | 0.00 | 0.00 | 77 | 1017.9 |
| 20260902144147 | 84 | 247 | 4.3 | 7.0 | 0.00 | 0.00 | 0.00 | 79 | 1017.7 |
| 20260902143642 | 84 | 231 | 4.3 | 6.1 | 0.00 | 0.00 | 0.00 | 79 | 1017.7 |
| 20260902143137 | 84 | 239 | 3.5 | 6.1 | 0.00 | 0.00 | 0.00 | 78 | 1017.6 |
| 20260902142633 | 83 | 222 | 4.3 | 7.0 | 0.00 | 0.00 | 0.00 | 79 | 1017.6 |
| 20260902142129 | 83 | 258 | 6.1 | 7.8 | 0.00 | 0.00 | 0.00 | 81 | 1017.7 |
| 20260902141628 | 83 | 219 | 3.5 | 7.0 | 0.00 | 0.00 | 0.00 | 82 | 1017.6 |
| 20260902141124 | 83 | 250 | 4.3 | 6.1 | 0.00 | 0.00 | 0.00 | 81 | 1017.5 |
| 20260902140619 | 82 | 250 | 3.5 | 6.1 | 0.00 | 0.00 | 0.00 | 83 | 1017.7 |
| 20260902140114 | 82 | 251 | 5.2 | 7.0 | 0.00 | 0.00 | 0.00 | 83 | 1017.7 |
| 20260902135613 | 82 | 214 | 6.1 | 7.8 | 0.00 | 0.00 | 0.00 | 82 | 1017.5 |
| 20260902135108 | 81 | 237 | 2.6 | 5.2 | 0.00 | 0.00 | 0.00 | 84 | 1017.4 |
| 20260902134604 | 81 | 247 | 5.2 | 6.1 | 0.00 | 0.00 | 0.00 | 85 | 1017.5 |
| 20260902134104 | 81 | 236 | 4.3 | 7.0 | 0.00 | 0.00 | 0.00 | 85 | 1017.5 |
| 20260902133558 | 80 | 229 | 2.6 | 7.0 | 0.00 | 0.00 | 0.00 | 87 | 1017.6 |
| 20260902133053 | 80 | 218 | 2.6 | 6.1 | 0.00 | 0.00 | 0.00 | 88 | 1017.4 |
| 20260902132548 | 80 | 240 | 3.5 | 4.3 | 0.00 | 0.00 | 0.00 | 88 | 1017.4 |
| 20260902132044 | 79 | 226 | 3.5 | 6.1 | 0.00 | 0.00 | 0.00 | 89 | 1017.4 |
| 20260902131540 | 79 | 226 | 4.3 | 6.1 | 0.00 | 0.00 | 0.00 | 90 | 1017.5 |
| 20260902131040 | 78 | 193 | 5.2 | 6.1 | 0.00 | 0.00 | 0.00 | 90 | 1017.6 |
| 20260902130536 | 78 | 198 | 3.5 | 6.1 | 0.00 | 0.00 | 0.00 | 91 | 1017.7 |
| 20260902130031 | 77 | 237 | 4.3 | 6.1 | 0.00 | 0.00 | 0.00 | 92 | 1017.5 |
| 20260902125527 | 77 | 215 | 4.3 | 5.2 | 0.00 | 0.00 | 0.00 | 93 | 1017.6 |
| 20260902125022 | 77 | 236 | 4.3 | 6.1 | 0.00 | 0.00 | 0.00 | 94 | 1017.5 |
| 20260902124519 | 76 | 229 | 4.3 | 6.1 | 0.00 | 0.00 | 0.00 | 94 | 1017.4 |
| 20260902124019 | 76 | 212 | 6.1 | 7.0 | 0.00 | 0.00 | 0.00 | 94 | 1017.5 |
| 20260902123515 | 76 | 216 | 5.2 | 6.1 | 0.00 | 0.00 | 0.00 | 95 | 1017.5 |
| 20260902123014 | 75 | 245 | 3.5 | 5.2 | 0.00 | 0.00 | 0.00 | 96 | 1017.6 |
| 20260902122509 | 75 | 238 | 4.3 | 5.2 | 0.00 | 0.00 | 0.00 | 96 | 1017.5 |
| 20260902122004 | 75 | 231 | 3.5 | 5.2 | 0.00 | 0.00 | 0.00 | 96 | 1017.6 |
| 20260902121459 | 75 | 217 | 4.3 | 4.3 | 0.00 | 0.00 | 0.00 | 97 | 1017.5 |
| 20260902120954 | 75 | 235 | 2.6 | 2.6 | 0.00 | 0.00 | 0.00 | 97 | 1017.6 |
| 20260902120451 | 74 | 227 | 2.6 | 5.2 | 0.00 | 0.00 | 0.00 | 97 | 1017.6 |
| 20260902115950 | 74 | 234 | 2.6 | 5.2 | 0.00 | 0.00 | 0.00 | 98 | 1017.7 |
| 20260902115446 | 74 | 233 | 2.6 | 4.3 | 0.00 | 0.00 | 0.00 | 98 | 1017.5 |
| 20260902114942 | 74 | 214 | 4.3 | 4.3 | 0.00 | 0.00 | 0.00 | 98 | 1017.5 |
| 20260902114438 | 73 | 229 | 2.6 | 4.3 | 0.00 | 0.00 | 0.00 | 98 | 1017.4 |
| 20260902113933 | 73 | 229 | 2.6 | 4.3 | 0.00 | 0.00 | 0.00 | 98 | 1017.3 |
| 20260902113429 | 73 | 208 | 3.5 | 4.3 | 0.00 | 0.00 | 0.00 | 98 | 1017.4 |
| 20260902112928 | 73 | 229 | 2.6 | 4.3 | 0.00 | 0.00 | 0.00 | 98 | 1017.4 |
| 20260902112424 | 74 | 221 | 2.6 | 2.6 | 0.00 | 0.00 | 0.00 | 98 | 1017.3 |
| 20260902111920 | 73 | 231 | 1.7 | 2.6 | 0.00 | 0.00 | 0.00 | 98 | 1017.2 |
| 20260902111416 | 73 | 235 | 1.7 | 2.6 | 0.00 | 0.00 | 0.00 | 98 | 1017.3 |
| 20260902110912 | 73 | 238 | 1.7 | 2.6 | 0.00 | 0.00 | 0.00 | 98 | 1017.3 |
| 20260902110408 | 73 | 234 | 1.7 | 2.6 | 0.00 | 0.00 | 0.00 | 98 | 1017.3 |
| 20260902105908 | 73 | 229 | 1.7 | 4.3 | 0.00 | 0.00 | 0.00 | 98 | 1017.5 |
| 20260902105403 | 73 | 237 | 3.5 | 5.2 | 0.00 | 0.00 | 0.00 | 99 | 1017.4 |
| 20260902104857 | 73 | 223 | 3.5 | 5.2 | 0.00 | 0.00 | 0.00 | 99 | 1017.4 |
| 20260902104354 | 73 | 223 | 4.3 | 5.2 | 0.00 | 0.00 | 0.00 | 99 | 1017.3 |
| 20260902103853 | 73 | 217 | 3.5 | 4.3 | 0.00 | 0.00 | 0.00 | 98 | 1017.3 |
| 20260902103349 | 73 | 211 | 2.6 | 4.3 | 0.00 | 0.00 | 0.00 | 98 | 1017.2 |
| 20260902102843 | 73 | 229 | 2.6 | 4.3 | 0.00 | 0.00 | 0.00 | 98 | 1017.2 |
| 20260902102341 | 73 | 218 | 2.6 | 2.6 | 0.00 | 0.00 | 0.00 | 98 | 1017.1 |
| 20260902101836 | 73 | 221 | 2.6 | 4.3 | 0.00 | 0.00 | 0.00 | 98 | 1017.1 |
| 20260902101330 | 73 | 230 | 2.6 | 4.3 | 0.00 | 0.00 | 0.00 | 98 | 1017.1 |
| 20260902100825 | 73 | 218 | 3.5 | 4.3 | 0.00 | 0.00 | 0.00 | 98 | 1017.3 |
| 20260902100324 | 73 | 227 | 0.9 | 1.7 | 0.00 | 0.00 | 0.00 | 98 | 1017.4 |
| 20260902095819 | 73 | 230 | 1.7 | 1.7 | 0.00 | 0.00 | 0.00 | 98 | 1017.3 |
| 20260902095314 | 73 | 218 | 2.6 | 4.3 | 0.00 | 0.00 | 0.00 | 98 | 1017.4 |
| 20260902094808 | 73 | 220 | 2.6 | 2.6 | 0.00 | 0.00 | 0.00 | 98 | 1017.2 |
| 20260902094305 | 73 | 220 | 2.6 | 2.6 | 0.00 | 0.00 | 0.00 | 98 | 1017.3 |
| 20260902093804 | 73 | 225 | 1.7 | 1.7 | 0.00 | 0.00 | 0.00 | 98 | 1017.2 |
| 20260902093259 | 73 | 224 | 1.7 | 1.7 | 0.00 | 0.00 | 0.00 | 98 | 1017.1 |
| 20260902092758 | 73 | 241 | 1.7 | 1.7 | 0.00 | 0.00 | 0.00 | 98 | 1017.0 |
| 20260902092254 | 73 | 221 | 2.6 | 2.6 | 0.00 | 0.00 | 0.00 | 98 | 1017.0 |
| 20260902091753 | 74 | 219 | 1.7 | 2.6 | 0.00 | 0.00 | 0.00 | 98 | 1017.2 |
| 20260902091249 | 74 | 215 | 2.6 | 2.6 | 0.00 | 0.00 | 0.00 | 99 | 1017.2 |
| 20260902090746 | 74 | 224 | 1.7 | 1.7 | 0.00 | 0.00 | 0.00 | 99 | 1017.1 |
| 20260902090245 | 73 | 222 | 1.7 | 1.7 | 0.00 | 0.00 | 0.00 | 99 | 1017.1 |
| 20260902085744 | 73 | 215 | 0.9 | 1.7 | 0.00 | 0.00 | 0.00 | 98 | 1017.2 |
| 20260902085240 | 73 | 216 | 1.7 | 1.7 | 0.00 | 0.00 | 0.00 | 98 | 1017.3 |
| 20260902084736 | 74 | 219 | 2.6 | 2.6 | 0.00 | 0.00 | 0.00 | 98 | 1016.9 |
| 20260902084232 | 74 | 215 | 2.6 | 2.6 | 0.00 | 0.00 | 0.00 | 98 | 1017.1 |
| 20260902083731 | 74 | 221 | 2.6 | 2.6 | 0.00 | 0.00 | 0.00 | 98 | 1017.1 |
| 20260902083226 | 74 | 215 | 2.6 | 2.6 | 0.00 | 0.00 | 0.00 | 98 | 1017.0 |
| 20260902082721 | 74 | 213 | 1.7 | 1.7 | 0.00 | 0.00 | 0.00 | 98 | 1017.0 |
| 20260902082218 | 74 | 218 | 0.9 | 0.9 | 0.00 | 0.00 | 0.00 | 98 | 1017.2 |
| 20260902081714 | 74 | 218 | 1.7 | 1.7 | 0.00 | 0.00 | 0.00 | 98 | 1016.8 |
| 20260902081209 | 74 | 217 | 1.7 | 1.7 | 0.00 | 0.00 | 0.00 | 98 | 1016.9 |
| 20260902080704 | 74 | 220 | 0.0 | 0.0 | 0.00 | 0.00 | 0.00 | 98 | 1016.9 |
| 20260902080201 | 74 | 224 | 0.0 | 0.0 | 0.00 | 0.00 | 0.00 | 98 | 1016.8 |
| 20260902075700 | 74 | 234 | 0.0 | 0.0 | 0.00 | 0.00 | 0.00 | 98 | 1016.7 |
| 20260902075156 | 74 | 226 | 0.0 | 0.0 | 0.00 | 0.00 | 0.00 | 98 | 1016.8 |
| 20260902074656 | 75 | 222 | 1.7 | 1.7 | 0.00 | 0.00 | 0.00 | 98 | 1016.5 |
| 20260902074152 | 75 | 218 | 2.6 | 2.6 | 0.00 | 0.00 | 0.00 | 98 | 1016.6 |
| 20260902073647 | 75 | 214 | 2.6 | 4.3 | 0.00 | 0.00 | 0.00 | 98 | 1016.6 |
| 20260902073143 | 75 | 216 | 2.6 | 2.6 | 0.00 | 0.00 | 0.00 | 98 | 1016.5 |
| 20260902072639 | 75 | 223 | 1.7 | 2.6 | 0.00 | 0.00 | 0.00 | 98 | 1016.5 |
| 20260902072135 | 75 | 218 | 2.6 | 2.6 | 0.00 | 0.00 | 0.00 | 99 | 1016.5 |
| 20260902071631 | 74 | 228 | 2.6 | 2.6 | 0.00 | 0.00 | 0.00 | 99 | 1016.3 |
| 20260902071126 | 74 | 217 | 2.6 | 2.6 | 0.00 | 0.00 | 0.00 | 99 | 1016.5 |
| 20260902070622 | 74 | 216 | 1.7 | 2.6 | 0.00 | 0.00 | 0.00 | 99 | 1016.4 |
| 20260902070122 | 74 | 222 | 2.6 | 2.6 | 0.00 | 0.00 | 0.00 | 99 | 1016.5 |
| 20260902065620 | 74 | 220 | 2.6 | 2.6 | 0.00 | 0.00 | 0.00 | 99 | 1016.4 |
| 20260902065117 | 74 | 216 | 2.6 | 2.6 | 0.00 | 0.00 | 0.00 | 99 | 1016.5 |
| 20260902064612 | 74 | 216 | 1.7 | 2.6 | 0.00 | 0.00 | 0.00 | 99 | 1016.4 |
| 20260902064107 | 73 | 211 | 1.7 | 1.7 | 0.00 | 0.00 | 0.00 | 99 | 1016.6 |
| 20260902063602 | 73 | 211 | 1.7 | 1.7 | 0.00 | 0.00 | 0.00 | 99 | 1016.4 |
| 20260902063057 | 73 | 215 | 1.7 | 1.7 | 0.00 | 0.00 | 0.00 | 99 | 1016.6 |
| 20260902062555 | 73 | 216 | 1.7 | 1.7 | 0.00 | 0.00 | 0.00 | 99 | 1016.6 |
| 20260902062052 | 73 | 217 | 1.7 | 1.7 | 0.00 | 0.00 | 0.00 | 99 | 1016.8 |
| 20260902061551 | 73 | 218 | 0.9 | 1.7 | 0.00 | 0.00 | 0.00 | 99 | 1016.7 |
| 20260902061047 | 74 | 217 | 0.9 | 0.9 | 0.00 | 0.00 | 0.00 | 99 | 1016.8 |
| 20260902060543 | 74 | 218 | 0.9 | 1.7 | 0.00 | 0.00 | 0.00 | 99 | 1016.9 |
| 20260902060039 | 74 | 214 | 0.9 | 1.7 | 0.00 | 0.00 | 0.00 | 99 | 1016.8 |
| 20260902055535 | 74 | 215 | 0.9 | 1.7 | 0.00 | 0.00 | 0.00 | 99 | 1016.9 |
| 20260902055030 | 74 | 213 | 0.9 | 1.7 | 0.00 | 0.00 | 0.00 | 99 | 1016.9 |
| 20260902054525 | 73 | 218 | 0.9 | 1.7 | 0.00 | 0.00 | 0.00 | 99 | 1017.0 |
| 20260902054021 | 73 | 213 | 0.0 | 0.0 | 0.00 | 0.00 | 0.00 | 99 | 1016.9 |
| 20260902053516 | 71 | 223 | 0.0 | 0.0 | 0.00 | 0.00 | 0.00 | 99 | 1016.9 |
| 20260902053016 | 73 | 216 | 0.0 | 0.0 | 0.00 | 0.00 | 0.00 | 99 | 1016.9 |
| 20260902052509 | 72 | 214 | 0.0 | 0.0 | 0.00 | 0.00 | 0.00 | 99 | 1017.2 |
| 20260902052000 | 71 | 217 | 0.0 | 0.0 | 0.00 | 0.00 | 0.00 | 99 | 1017.1 |
| 20260902051459 | 71 | 226 | 0.0 | 0.0 | 0.00 | 0.00 | 0.00 | 99 | 1017.0 |
| 20260902050958 | 71 | 226 | 0.0 | 0.0 | 0.00 | 0.00 | 0.00 | 98 | 1017.0 |
| 20260902050453 | 71 | 226 | 0.9 | 0.9 | 0.00 | 0.00 | 0.00 | 98 | 1017.2 |
| 20260902045948 | 71 | 226 | 0.9 | 0.9 | 0.00 | 0.00 | 0.00 | 98 | 1017.0 |
| 20260902045443 | 71 | 226 | 0.9 | 0.9 | 0.00 | 0.00 | 0.00 | 98 | 1017.0 |
| 20260902044939 | 73 | 226 | 0.0 | 0.0 | 0.00 | 0.00 | 0.00 | 98 | 1017.0 |
| 20260902044429 | 73 | 226 | 0.0 | 0.0 | 0.00 | 0.00 | 0.00 | 98 | 1016.8 |